Tracking 19279 objects as of 13-Nov-2018
HD Live streaming from Space Station
objects crossing your sky now

GOES 2

Track GOES 2 now!
GOES 2 is classified as:


NORAD ID: 10061
Int'l Code: 1977-048A
Perigee: 35,965.1 km
Apogee: 36,117.8 km
Inclination: 12.5 °
Period: 1,448.8 minutes
Semi major axis: 42412 km
RCS: 2.5118 m2 (large)
Launch date: June 16, 1977
Source: United States (US)
Launch site: AIR FORCE EASTERN TEST RANGE (AFETR)
aabbcc
Your satellite tracking list
Your tracking list is empty




NASA's NSSDC Master Catalog

Two Line Element Set (TLE):
1 10061U 77048A   18316.55128890  .00000066  00000-0  00000+0 0  9992
2 10061  12.4931 321.7351 0018008 334.3660 190.8891  0.99394682 95947
Source of the keplerian elements: AFSPC